contact:dominique.lefevre@mio.osupytheas.fr, maurice.libes@osupytheas.fr, didier.mallarino@osupytheas.fr
Project:EMSO http://www.emso-fr.org/EMSO-France
Depth: 2436.0 m
Title:EMSO Ligure Ouest : Data MII capteur CSTAR
DateTime,Latitude,Longitude,Instrument_Serial,Reference_Counts,Signal_Counts,Corrected_Signal_raw_counts,Calculated_Beam_c_inverse_meters,Internal_thermistor_counts
DateTime,Latitude,Longitude,Instrument_Serial,Reference_Counts,Signal_Counts,Corrected_Signal_raw_counts,Calculated_Beam_c_inverse_meters,Internal_thermistor_counts
2021-11-04T00:02:03,42.805,6.029,CST-1368DR,5105,6744,14134,0.399,551
2021-11-04T00:05:05,42.805,6.029,CST-1368DR,5105,6744,14133,0.399,551
2021-11-04T00:08:06,42.805,6.029,CST-1368DR,5105,6744,14132,0.399,551
2021-11-04T00:11:08,42.805,6.029,CST-1368DR,5105,6744,14133,0.399,551
2021-11-04T00:14:09,42.805,6.029,CST-1368DR,5105,6744,14132,0.399,551
2021-11-04T00:17:11,42.805,6.029,CST-1368DR,5105,6744,14134,0.399,551
2021-11-04T00:20:12,42.805,6.029,CST-1368DR,5105,6744,14134,0.399,551
2021-11-04T00:23:14,42.805,6.029,CST-1368DR,5105,6744,14133,0.399,551
2021-11-04T00:26:16,42.805,6.029,CST-1368DR,5105,6744,14133,0.399,551
2021-11-04T00:29:17,42.805,6.029,CST-1368DR,5105,6744,14133,0.399,551
2021-11-04T00:32:19,42.805,6.029,CST-1368DR,5105,6744,14133,0.399,551
2021-11-04T00:35:20,42.805,6.029,CST-1368DR,5105,6744,14133,0.399,551
2021-11-04T00:38:22,42.805,6.029,CST-1368DR,5105,6744,14132,0.399,551
2021-11-04T00:41:24,42.805,6.029,CST-1368DR,5105,6744,14132,0.399,551
2021-11-04T00:44:25,42.805,6.029,CST-1368DR,5105,6744,14133,0.399,551
2021-11-04T00:47:27,42.805,6.029,CST-1368DR,5105,6743,14132,0.399,551
2021-11-04T00:50:28,42.805,6.029,CST-1368DR,5105,6744,14132,0.399,551
2021-11-04T00:53:30,42.805,6.029,CST-1368DR,5105,6744,14133,0.399,551
2021-11-04T00:56:31,42.805,6.029,CST-1368DR,5105,6744,14133,0.399,551
2021-11-04T00:59:33,42.805,6.029,CST-1368DR,5105,6742,14128,0.401,551
2021-11-04T01:02:35,42.805,6.029,CST-1368DR,5105,6743,14131,0.400,551
2021-11-04T01:05:36,42.805,6.029,CST-1368DR,5105,6743,14131,0.400,551
2021-11-04T01:08:38,42.805,6.029,CST-1368DR,5105,6742,14130,0.400,551
2021-11-04T01:11:39,42.805,6.029,CST-1368DR,5105,6743,14132,0.399,551
2021-11-04T01:14:41,42.805,6.029,CST-1368DR,5105,6743,14131,0.400,551
2021-11-04T01:17:42,42.805,6.029,CST-1368DR,5105,6744,14133,0.399,551
2021-11-04T01:20:44,42.805,6.029,CST-1368DR,5105,6743,14131,0.400,551
2021-11-04T01:23:46,42.805,6.029,CST-1368DR,5105,6742,14130,0.400,551
2021-11-04T01:26:47,42.805,6.029,CST-1368DR,5105,6744,14132,0.399,551
2021-11-04T01:29:49,42.805,6.029,CST-1368DR,5105,6743,14132,0.399,551
2021-11-04T01:32:50,42.805,6.029,CST-1368DR,5105,6743,14131,0.400,551
2021-11-04T01:35:52,42.805,6.029,CST-1368DR,5105,6741,14127,0.401,551
2021-11-04T01:38:54,42.805,6.029,CST-1368DR,5105,6742,14130,0.400,551
2021-11-04T01:41:55,42.805,6.029,CST-1368DR,5105,6744,14132,0.399,551
2021-11-04T01:44:57,42.805,6.029,CST-1368DR,5105,6743,14131,0.400,551
2021-11-04T01:47:58,42.805,6.029,CST-1368DR,5105,6743,14132,0.399,551
2021-11-04T01:51:00,42.805,6.029,CST-1368DR,5105,6743,14131,0.400,551
2021-11-04T01:54:01,42.805,6.029,CST-1368DR,5105,6743,14131,0.400,551
2021-11-04T01:57:03,42.805,6.029,CST-1368DR,5105,6743,14131,0.400,551
2021-11-04T02:00:05,42.805,6.029,CST-1368DR,5105,6742,14130,0.400,551
2021-11-04T02:03:06,42.805,6.029,CST-1368DR,5105,6742,14130,0.400,551
2021-11-04T02:06:08,42.805,6.029,CST-1368DR,5105,6743,14132,0.399,551
2021-11-04T02:09:09,42.805,6.029,CST-1368DR,5105,6743,14131,0.400,551
2021-11-04T02:12:11,42.805,6.029,CST-1368DR,5105,6743,14131,0.400,551
2021-11-04T02:15:12,42.805,6.029,CST-1368DR,5105,6742,14130,0.400,551
2021-11-04T02:18:14,42.805,6.029,CST-1368DR,5105,6742,14129,0.400,551
2021-11-04T02:21:16,42.805,6.029,CST-1368DR,5105,6743,14131,0.400,551
2021-11-04T02:24:17,42.805,6.029,CST-1368DR,5105,6742,14130,0.400,551
2021-11-04T02:27:19,42.805,6.029,CST-1368DR,5105,6742,14129,0.400,551
2021-11-04T02:30:20,42.805,6.029,CST-1368DR,5105,6742,14128,0.401,551
2021-11-04T02:33:22,42.805,6.029,CST-1368DR,5104,6742,14132,0.399,551
2021-11-04T02:36:24,42.805,6.029,CST-1368DR,5105,6742,14128,0.401,551
2021-11-04T02:39:25,42.805,6.029,CST-1368DR,5105,6743,14131,0.400,551
2021-11-04T02:42:27,42.805,6.029,CST-1368DR,5105,6742,14129,0.400,551
2021-11-04T02:45:28,42.805,6.029,CST-1368DR,5105,6742,14129,0.400,551
2021-11-04T02:48:30,42.805,6.029,CST-1368DR,5104,6742,14131,0.400,551
2021-11-04T02:51:31,42.805,6.029,CST-1368DR,5105,6741,14126,0.401,551
2021-11-04T02:54:33,42.805,6.029,CST-1368DR,5105,6742,14128,0.401,551
2021-11-04T02:57:35,42.805,6.029,CST-1368DR,5105,6742,14128,0.401,551
2021-11-04T03:00:36,42.805,6.029,CST-1368DR,5105,6741,14127,0.401,551
2021-11-04T03:03:38,42.805,6.029,CST-1368DR,5105,6741,14127,0.401,551
2021-11-04T03:06:39,42.805,6.029,CST-1368DR,5104,6741,14129,0.400,551
2021-11-04T03:09:41,42.805,6.029,CST-1368DR,5104,6742,14131,0.400,551
2021-11-04T03:12:43,42.805,6.029,CST-1368DR,5104,6741,14130,0.400,551
2021-11-04T03:15:44,42.805,6.029,CST-1368DR,5105,6741,14126,0.401,551
2021-11-04T03:18:46,42.805,6.029,CST-1368DR,5104,6742,14131,0.400,551
2021-11-04T03:21:47,42.805,6.029,CST-1368DR,5104,6741,14128,0.401,551
2021-11-04T03:24:49,42.805,6.029,CST-1368DR,5104,6741,14129,0.400,551
2021-11-04T03:27:50,42.805,6.029,CST-1368DR,5104,6741,14129,0.400,551
2021-11-04T03:30:52,42.805,6.029,CST-1368DR,5104,6741,14128,0.401,551
2021-11-04T03:33:54,42.805,6.029,CST-1368DR,5105,6741,14126,0.401,551
2021-11-04T03:36:55,42.805,6.029,CST-1368DR,5105,6740,14125,0.401,551
2021-11-04T03:39:57,42.805,6.029,CST-1368DR,5105,6741,14127,0.401,551
2021-11-04T03:42:58,42.805,6.029,CST-1368DR,5104,6741,14129,0.400,551
2021-11-04T03:46:00,42.805,6.029,CST-1368DR,5105,6740,14125,0.401,551
2021-11-04T03:49:01,42.805,6.029,CST-1368DR,5105,6741,14126,0.401,551
2021-11-04T03:52:03,42.805,6.029,CST-1368DR,5104,6741,14128,0.401,551
2021-11-04T03:55:05,42.805,6.029,CST-1368DR,5105,6741,14127,0.401,551
2021-11-04T03:58:06,42.805,6.029,CST-1368DR,5104,6741,14129,0.400,551
2021-11-04T04:01:08,42.805,6.029,CST-1368DR,5104,6741,14129,0.400,551
2021-11-04T04:04:09,42.805,6.029,CST-1368DR,5104,6741,14130,0.400,551
2021-11-04T04:07:11,42.805,6.029,CST-1368DR,5104,6740,14128,0.401,551
2021-11-04T04:10:13,42.805,6.029,CST-1368DR,5104,6738,14122,0.402,551
2021-11-04T04:13:14,42.805,6.029,CST-1368DR,5104,6740,14126,0.401,551
2021-11-04T04:16:16,42.805,6.029,CST-1368DR,5104,6741,14129,0.400,551
2021-11-04T04:19:17,42.805,6.029,CST-1368DR,5104,6738,14123,0.402,551
2021-11-04T04:22:19,42.805,6.029,CST-1368DR,5104,6727,14100,0.408,551
2021-11-04T04:25:20,42.805,6.029,CST-1368DR,5104,6740,14126,0.401,551
2021-11-04T04:28:22,42.805,6.029,CST-1368DR,5104,6740,14128,0.401,551
2021-11-04T04:31:24,42.805,6.029,CST-1368DR,5104,6740,14127,0.401,551
2021-11-04T04:34:25,42.805,6.029,CST-1368DR,5104,6741,14129,0.400,551
2021-11-04T04:37:27,42.805,6.029,CST-1368DR,5104,6740,14128,0.401,551
2021-11-04T04:40:28,42.805,6.029,CST-1368DR,5104,6740,14127,0.401,551
2021-11-04T04:43:30,42.805,6.029,CST-1368DR,5104,6740,14128,0.401,551
2021-11-04T04:46:32,42.805,6.029,CST-1368DR,5104,6740,14127,0.401,551
2021-11-04T04:49:33,42.805,6.029,CST-1368DR,5104,6740,14127,0.401,551
2021-11-04T04:52:35,42.805,6.029,CST-1368DR,5104,6740,14127,0.401,551
2021-11-04T04:55:36,42.805,6.029,CST-1368DR,5104,6740,14126,0.401,551
2021-11-04T04:58:38,42.805,6.029,CST-1368DR,5104,6739,14125,0.401,551
2021-11-04T05:01:39,42.805,6.029,CST-1368DR,5104,6740,14127,0.401,551
2021-11-04T05:04:41,42.805,6.029,CST-1368DR,5104,6740,14127,0.401,551
2021-11-04T05:07:43,42.805,6.029,CST-1368DR,5104,6740,14126,0.401,551
2021-11-04T05:10:44,42.805,6.029,CST-1368DR,5104,6740,14126,0.401,551
2021-11-04T05:13:46,42.805,6.029,CST-1368DR,5104,6739,14124,0.402,551
2021-11-04T05:16:47,42.805,6.029,CST-1368DR,5104,6739,14125,0.401,551
2021-11-04T05:19:49,42.805,6.029,CST-1368DR,5104,6740,14127,0.401,551
2021-11-04T05:22:51,42.805,6.029,CST-1368DR,5104,6738,14124,0.402,551
2021-11-04T05:25:52,42.805,6.029,CST-1368DR,5104,6737,14120,0.403,551
2021-11-04T05:28:54,42.805,6.029,CST-1368DR,5104,6738,14123,0.402,551
2021-11-04T05:31:55,42.805,6.029,CST-1368DR,5104,6739,14124,0.402,551
2021-11-04T05:34:57,42.805,6.029,CST-1368DR,5104,6739,14125,0.401,550
2021-11-04T05:37:58,42.805,6.029,CST-1368DR,5104,6739,14125,0.401,551
2021-11-04T05:41:00,42.805,6.029,CST-1368DR,5104,6739,14124,0.402,551
2021-11-04T05:44:02,42.805,6.029,CST-1368DR,5104,6739,14124,0.402,551
2021-11-04T05:47:03,42.805,6.029,CST-1368DR,5104,6739,14124,0.402,551
2021-11-04T05:50:05,42.805,6.029,CST-1368DR,5104,6739,14124,0.402,551
2021-11-04T05:53:06,42.805,6.029,CST-1368DR,5104,6738,14124,0.402,551
2021-11-04T05:56:08,42.805,6.029,CST-1368DR,5104,6739,14124,0.402,551
2021-11-04T05:59:10,42.805,6.029,CST-1368DR,5104,6739,14125,0.401,551
2021-11-04T06:02:11,42.805,6.029,CST-1368DR,5104,6738,14124,0.402,551
2021-11-04T06:05:13,42.805,6.029,CST-1368DR,5104,6739,14125,0.401,551
2021-11-04T06:08:14,42.805,6.029,CST-1368DR,5104,6736,14120,0.403,551
2021-11-04T06:11:16,42.805,6.029,CST-1368DR,5104,6739,14124,0.402,551
2021-11-04T06:14:17,42.805,6.029,CST-1368DR,5104,6736,14120,0.403,551
2021-11-04T06:17:19,42.805,6.029,CST-1368DR,5104,6738,14124,0.402,551
2021-11-04T06:20:21,42.805,6.029,CST-1368DR,5104,6739,14125,0.401,551
2021-11-04T06:23:22,42.805,6.029,CST-1368DR,5104,6738,14124,0.402,551
2021-11-04T06:26:24,42.805,6.029,CST-1368DR,5104,6737,14122,0.402,551
2021-11-04T06:29:25,42.805,6.029,CST-1368DR,5104,6738,14124,0.402,551
2021-11-04T06:32:27,42.805,6.029,CST-1368DR,5104,6738,14124,0.402,551
2021-11-04T06:35:28,42.805,6.029,CST-1368DR,5104,6739,14124,0.402,551
2021-11-04T06:38:30,42.805,6.029,CST-1368DR,5104,6738,14124,0.402,551
2021-11-04T06:41:32,42.805,6.029,CST-1368DR,5104,6738,14123,0.402,551
2021-11-04T06:44:33,42.805,6.029,CST-1368DR,5104,6738,14123,0.402,551
2021-11-04T06:47:35,42.805,6.029,CST-1368DR,5104,6736,14119,0.403,551
2021-11-04T06:50:36,42.805,6.029,CST-1368DR,5104,6738,14124,0.402,551
2021-11-04T06:53:38,42.805,6.029,CST-1368DR,5104,6738,14123,0.402,551
2021-11-04T06:56:40,42.805,6.029,CST-1368DR,5104,6739,14124,0.402,551
2021-11-04T06:59:41,42.805,6.029,CST-1368DR,5104,6738,14123,0.402,551
2021-11-04T07:02:43,42.805,6.029,CST-1368DR,5104,6738,14122,0.402,551
2021-11-04T07:05:44,42.805,6.029,CST-1368DR,5104,6738,14123,0.402,551
2021-11-04T07:08:46,42.805,6.029,CST-1368DR,5104,6738,14122,0.402,551
2021-11-04T07:11:47,42.805,6.029,CST-1368DR,5104,6737,14122,0.402,551
2021-11-04T07:14:49,42.805,6.029,CST-1368DR,5104,6738,14122,0.402,551
2021-11-04T07:17:51,42.805,6.029,CST-1368DR,5104,6736,14120,0.403,551
2021-11-04T07:20:52,42.805,6.029,CST-1368DR,5104,6738,14122,0.402,551
2021-11-04T07:23:54,42.805,6.029,CST-1368DR,5104,6738,14123,0.402,551
2021-11-04T07:26:55,42.805,6.029,CST-1368DR,5104,6736,14120,0.403,551
2021-11-04T07:29:57,42.805,6.029,CST-1368DR,5104,6738,14122,0.402,551
2021-11-04T07:32:58,42.805,6.029,CST-1368DR,5104,6737,14122,0.402,551
2021-11-04T07:36:00,42.805,6.029,CST-1368DR,5104,6738,14124,0.402,551
2021-11-04T07:39:02,42.805,6.029,CST-1368DR,5104,6737,14122,0.402,551
2021-11-04T07:42:03,42.805,6.029,CST-1368DR,5104,6737,14121,0.403,551
2021-11-04T07:45:05,42.805,6.029,CST-1368DR,5104,6738,14122,0.402,551
2021-11-04T07:48:06,42.805,6.029,CST-1368DR,5104,6737,14121,0.403,551
2021-11-04T07:51:08,42.805,6.029,CST-1368DR,5104,6737,14122,0.402,551
2021-11-04T07:54:10,42.805,6.029,CST-1368DR,5104,6737,14121,0.403,551
2021-11-04T07:57:11,42.805,6.029,CST-1368DR,5104,6738,14123,0.402,551
2021-11-04T08:00:13,42.805,6.029,CST-1368DR,5104,6738,14122,0.402,551
2021-11-04T08:03:14,42.805,6.029,CST-1368DR,5104,6738,14122,0.402,551
2021-11-04T08:06:16,42.805,6.029,CST-1368DR,5104,6737,14122,0.402,551
2021-11-04T08:09:17,42.805,6.029,CST-1368DR,5104,6738,14123,0.402,551
2021-11-04T08:12:19,42.805,6.029,CST-1368DR,5104,6737,14122,0.402,551
2021-11-04T08:15:21,42.805,6.029,CST-1368DR,5104,6738,14122,0.402,551
2021-11-04T08:18:22,42.805,6.029,CST-1368DR,5104,6737,14121,0.403,551
2021-11-04T08:21:24,42.805,6.029,CST-1368DR,5104,6737,14120,0.403,551
2021-11-04T08:24:25,42.805,6.029,CST-1368DR,5104,6730,14106,0.407,551
2021-11-04T08:27:27,42.805,6.029,CST-1368DR,5104,6737,14122,0.402,551
2021-11-04T08:30:29,42.805,6.029,CST-1368DR,5104,6737,14121,0.403,551
2021-11-04T08:33:30,42.805,6.029,CST-1368DR,5104,6737,14121,0.403,551
2021-11-04T08:36:32,42.805,6.029,CST-1368DR,5104,6738,14122,0.402,551
2021-11-04T08:39:33,42.805,6.029,CST-1368DR,5104,6738,14123,0.402,551
2021-11-04T08:42:35,42.805,6.029,CST-1368DR,5104,6737,14122,0.402,551
2021-11-04T08:45:36,42.805,6.029,CST-1368DR,5104,6737,14122,0.402,551
2021-11-04T08:48:38,42.805,6.029,CST-1368DR,5104,6738,14122,0.402,551
2021-11-04T08:51:40,42.805,6.029,CST-1368DR,5104,6737,14121,0.403,551
2021-11-04T08:54:41,42.805,6.029,CST-1368DR,5104,6737,14121,0.403,551
2021-11-04T08:57:43,42.805,6.029,CST-1368DR,5104,6737,14122,0.402,551
2021-11-04T09:00:44,42.805,6.029,CST-1368DR,5104,6737,14121,0.403,551
2021-11-04T09:03:46,42.805,6.029,CST-1368DR,5104,6737,14122,0.402,551
2021-11-04T09:06:47,42.805,6.029,CST-1368DR,5104,6736,14120,0.403,551
2021-11-04T09:09:49,42.805,6.029,CST-1368DR,5104,6737,14121,0.403,551
2021-11-04T09:12:51,42.805,6.029,CST-1368DR,5104,6737,14121,0.403,551
2021-11-04T09:15:52,42.805,6.029,CST-1368DR,5104,6737,14121,0.403,551
2021-11-04T09:18:54,42.805,6.029,CST-1368DR,5104,6735,14117,0.404,551
2021-11-04T09:21:55,42.805,6.029,CST-1368DR,5104,6738,14123,0.402,551
2021-11-04T09:24:57,42.805,6.029,CST-1368DR,5104,6738,14123,0.402,551
2021-11-04T09:27:59,42.805,6.029,CST-1368DR,5104,6737,14121,0.403,551
2021-11-04T09:31:00,42.805,6.029,CST-1368DR,5104,6737,14121,0.403,551
2021-11-04T09:34:02,42.805,6.029,CST-1368DR,5104,6737,14121,0.403,551
2021-11-04T09:37:03,42.805,6.029,CST-1368DR,5104,6737,14121,0.403,551
2021-11-04T09:40:05,42.805,6.029,CST-1368DR,5104,6737,14122,0.402,551
2021-11-04T09:43:06,42.805,6.029,CST-1368DR,5104,6737,14121,0.403,551
2021-11-04T09:46:08,42.805,6.029,CST-1368DR,5104,6737,14121,0.403,551
2021-11-04T09:49:10,42.805,6.029,CST-1368DR,5104,6736,14120,0.403,551
2021-11-04T09:52:11,42.805,6.029,CST-1368DR,5104,6737,14121,0.403,551
2021-11-04T09:55:13,42.805,6.029,CST-1368DR,5104,6737,14121,0.403,551
2021-11-04T09:58:14,42.805,6.029,CST-1368DR,5104,6737,14121,0.403,551
2021-11-04T10:01:16,42.805,6.029,CST-1368DR,5104,6737,14120,0.403,551
2021-11-04T10:04:18,42.805,6.029,CST-1368DR,5104,6738,14122,0.402,551
2021-11-04T10:07:19,42.805,6.029,CST-1368DR,5104,6737,14121,0.403,551
2021-11-04T10:10:21,42.805,6.029,CST-1368DR,5104,6738,14123,0.402,551
2021-11-04T10:13:22,42.805,6.029,CST-1368DR,5104,6738,14122,0.402,551
2021-11-04T10:16:24,42.805,6.029,CST-1368DR,5104,6737,14121,0.403,551
2021-11-04T10:19:25,42.805,6.029,CST-1368DR,5104,6737,14121,0.403,551
2021-11-04T10:22:27,42.805,6.029,CST-1368DR,5104,6736,14120,0.403,551
2021-11-04T10:25:29,42.805,6.029,CST-1368DR,5104,6738,14122,0.402,551
2021-11-04T10:28:30,42.805,6.029,CST-1368DR,5104,6737,14121,0.403,551
2021-11-04T10:31:32,42.805,6.029,CST-1368DR,5104,6737,14121,0.403,551
2021-11-04T10:34:33,42.805,6.029,CST-1368DR,5104,6737,14121,0.403,551
2021-11-04T10:37:35,42.805,6.029,CST-1368DR,5104,6737,14121,0.403,551
2021-11-04T10:40:37,42.805,6.029,CST-1368DR,5104,6738,14122,0.402,551
2021-11-04T10:43:38,42.805,6.029,CST-1368DR,5104,6737,14122,0.402,551
2021-11-04T10:46:40,42.805,6.029,CST-1368DR,5104,6737,14120,0.403,551
2021-11-04T10:49:41,42.805,6.029,CST-1368DR,5104,6737,14121,0.403,551
2021-11-04T10:52:43,42.805,6.029,CST-1368DR,5104,6738,14123,0.402,551
2021-11-04T10:55:44,42.805,6.029,CST-1368DR,5104,6737,14121,0.403,551
2021-11-04T10:58:46,42.805,6.029,CST-1368DR,5104,6737,14121,0.403,551
2021-11-04T11:01:48,42.805,6.029,CST-1368DR,5104,6736,14120,0.403,551
2021-11-04T11:04:49,42.805,6.029,CST-1368DR,5104,6737,14122,0.402,551
2021-11-04T11:07:51,42.805,6.029,CST-1368DR,5104,6737,14121,0.403,551
2021-11-04T11:10:52,42.805,6.029,CST-1368DR,5104,6737,14120,0.403,551
2021-11-04T11:13:54,42.805,6.029,CST-1368DR,5104,6737,14122,0.402,551
2021-11-04T11:16:55,42.805,6.029,CST-1368DR,5104,6737,14122,0.402,551
2021-11-04T11:19:57,42.805,6.029,CST-1368DR,5104,6737,14120,0.403,551
2021-11-04T11:22:59,42.805,6.029,CST-1368DR,5104,6737,14121,0.403,551
2021-11-04T11:26:00,42.805,6.029,CST-1368DR,5104,6737,14122,0.402,551
2021-11-04T11:29:02,42.805,6.029,CST-1368DR,5104,6737,14121,0.403,551
2021-11-04T11:32:03,42.805,6.029,CST-1368DR,5104,6737,14120,0.403,551
2021-11-04T11:35:05,42.805,6.029,CST-1368DR,5104,6737,14121,0.403,551
2021-11-04T11:38:07,42.805,6.029,CST-1368DR,5104,6737,14121,0.403,551
2021-11-04T11:41:08,42.805,6.029,CST-1368DR,5104,6737,14122,0.402,551
2021-11-04T11:44:10,42.805,6.029,CST-1368DR,5104,6737,14122,0.402,551
2021-11-04T11:47:11,42.805,6.029,CST-1368DR,5104,6736,14120,0.403,551
2021-11-04T11:50:13,42.805,6.029,CST-1368DR,5104,6737,14121,0.403,551
2021-11-04T11:53:14,42.805,6.029,CST-1368DR,5104,6736,14120,0.403,550
2021-11-04T11:56:16,42.805,6.029,CST-1368DR,5104,6736,14120,0.403,551
2021-11-04T11:59:18,42.805,6.029,CST-1368DR,5104,6737,14121,0.403,551
2021-11-04T12:02:19,42.805,6.029,CST-1368DR,5104,6737,14121,0.403,551
2021-11-04T12:05:21,42.805,6.029,CST-1368DR,5104,6736,14119,0.403,551
2021-11-04T12:08:22,42.805,6.029,CST-1368DR,5104,6736,14119,0.403,551
2021-11-04T12:11:24,42.805,6.029,CST-1368DR,5104,6736,14120,0.403,551
2021-11-04T12:14:26,42.805,6.029,CST-1368DR,5104,6737,14120,0.403,551
2021-11-04T12:17:27,42.805,6.029,CST-1368DR,5104,6735,14117,0.404,551
2021-11-04T12:20:29,42.805,6.029,CST-1368DR,5104,6737,14120,0.403,551
2021-11-04T12:23:30,42.805,6.029,CST-1368DR,5104,6737,14120,0.403,551
2021-11-04T12:26:32,42.805,6.029,CST-1368DR,5104,6736,14120,0.403,551
2021-11-04T12:29:33,42.805,6.029,CST-1368DR,5104,6736,14119,0.403,551
2021-11-04T12:32:35,42.805,6.029,CST-1368DR,5104,6736,14118,0.403,551
2021-11-04T12:35:37,42.805,6.029,CST-1368DR,5104,6736,14119,0.403,550
2021-11-04T12:38:38,42.805,6.029,CST-1368DR,5104,6736,14120,0.403,551
2021-11-04T12:41:40,42.805,6.029,CST-1368DR,5104,6736,14120,0.403,551
2021-11-04T12:44:41,42.805,6.029,CST-1368DR,5104,6736,14119,0.403,551
2021-11-04T12:47:43,42.805,6.029,CST-1368DR,5104,6737,14121,0.403,551
2021-11-04T12:50:45,42.805,6.029,CST-1368DR,5104,6737,14121,0.403,551
2021-11-04T12:53:46,42.805,6.029,CST-1368DR,5104,6736,14118,0.403,551
2021-11-04T12:56:48,42.805,6.029,CST-1368DR,5104,6736,14120,0.403,551
2021-11-04T12:59:49,42.805,6.029,CST-1368DR,5104,6734,14115,0.404,550
2021-11-04T13:02:51,42.805,6.029,CST-1368DR,5104,6737,14120,0.403,551
2021-11-04T13:05:52,42.805,6.029,CST-1368DR,5104,6737,14120,0.403,551
2021-11-04T13:08:54,42.805,6.029,CST-1368DR,5104,6736,14120,0.403,551
2021-11-04T13:11:56,42.805,6.029,CST-1368DR,5104,6737,14121,0.403,551
2021-11-04T13:14:57,42.805,6.029,CST-1368DR,5104,6736,14119,0.403,551
2021-11-04T13:17:59,42.805,6.029,CST-1368DR,5104,6737,14120,0.403,551
2021-11-04T13:21:00,42.805,6.029,CST-1368DR,5104,6736,14120,0.403,551
2021-11-04T13:24:02,42.805,6.029,CST-1368DR,5104,6736,14119,0.403,551
2021-11-04T13:27:03,42.805,6.029,CST-1368DR,5104,6736,14118,0.403,551
2021-11-04T13:30:05,42.805,6.029,CST-1368DR,5104,6735,14117,0.404,551
2021-11-04T13:33:07,42.805,6.029,CST-1368DR,5104,6736,14120,0.403,551
2021-11-04T13:36:08,42.805,6.029,CST-1368DR,5104,6736,14119,0.403,551
2021-11-04T13:39:10,42.805,6.029,CST-1368DR,5103,6736,14122,0.402,551
2021-11-04T13:42:11,42.805,6.029,CST-1368DR,5103,6734,14117,0.404,551
2021-11-04T13:45:13,42.805,6.029,CST-1368DR,5104,6736,14118,0.403,551
2021-11-04T13:48:15,42.805,6.029,CST-1368DR,5104,6736,14118,0.403,551
2021-11-04T13:51:16,42.805,6.029,CST-1368DR,5104,6735,14117,0.404,551
2021-11-04T13:54:18,42.805,6.029,CST-1368DR,5104,6736,14120,0.403,551
2021-11-04T13:57:19,42.805,6.029,CST-1368DR,5104,6736,14120,0.403,551
2021-11-04T14:00:21,42.805,6.029,CST-1368DR,5104,6736,14119,0.403,551
2021-11-04T14:03:22,42.805,6.029,CST-1368DR,5104,6736,14118,0.403,551
2021-11-04T14:06:24,42.805,6.029,CST-1368DR,5104,6736,14119,0.403,551
2021-11-04T14:09:26,42.805,6.029,CST-1368DR,5104,6736,14118,0.403,551
2021-11-04T14:12:27,42.805,6.029,CST-1368DR,5104,6736,14119,0.403,551
2021-11-04T14:15:29,42.805,6.029,CST-1368DR,5104,6736,14118,0.403,551
2021-11-04T14:18:30,42.805,6.029,CST-1368DR,5104,6736,14118,0.403,551
2021-11-04T14:21:32,42.805,6.029,CST-1368DR,5104,6736,14119,0.403,551
2021-11-04T14:24:34,42.805,6.029,CST-1368DR,5104,6736,14120,0.403,550
2021-11-04T14:27:35,42.805,6.029,CST-1368DR,5104,6736,14118,0.403,551
2021-11-04T14:30:37,42.805,6.029,CST-1368DR,5104,6736,14118,0.403,551
2021-11-04T14:33:38,42.805,6.029,CST-1368DR,5103,6736,14122,0.402,551
2021-11-04T14:36:40,42.805,6.029,CST-1368DR,5104,6736,14120,0.403,551
2021-11-04T14:39:41,42.805,6.029,CST-1368DR,5103,6735,14120,0.403,551
2021-11-04T14:42:43,42.805,6.029,CST-1368DR,5103,6735,14120,0.403,551
2021-11-04T14:50:06,42.805,6.029,CST-1368DR,5104,6737,14120,0.403,551
2021-11-04T14:53:08,42.805,6.029,CST-1368DR,5104,6736,14119,0.403,551
2021-11-04T14:56:10,42.805,6.029,CST-1368DR,5104,6735,14116,0.404,551
2021-11-04T14:59:11,42.805,6.029,CST-1368DR,5104,6734,14115,0.404,551
2021-11-04T15:02:13,42.805,6.029,CST-1368DR,5104,6734,14115,0.404,551
2021-11-04T15:05:14,42.805,6.029,CST-1368DR,5104,6735,14116,0.404,551
2021-11-04T15:08:16,42.805,6.029,CST-1368DR,5103,6733,14116,0.404,551
2021-11-04T15:11:17,42.805,6.029,CST-1368DR,5103,6734,14117,0.404,551
2021-11-04T15:14:19,42.805,6.029,CST-1368DR,5104,6735,14117,0.404,551
2021-11-04T15:17:21,42.805,6.029,CST-1368DR,5104,6736,14119,0.403,551
2021-11-04T15:20:22,42.805,6.029,CST-1368DR,5104,6735,14117,0.404,551
2021-11-04T15:23:24,42.805,6.029,CST-1368DR,5104,6736,14118,0.403,551
2021-11-04T15:26:25,42.805,6.029,CST-1368DR,5104,6737,14121,0.403,551
2021-11-04T15:29:27,42.805,6.029,CST-1368DR,5104,6736,14118,0.403,551
2021-11-04T15:32:29,42.805,6.029,CST-1368DR,5103,6736,14122,0.402,551
2021-11-04T15:35:30,42.805,6.029,CST-1368DR,5104,6736,14118,0.403,551
2021-11-04T15:38:32,42.805,6.029,CST-1368DR,5103,6734,14117,0.404,551
2021-11-04T15:41:33,42.805,6.029,CST-1368DR,5103,6736,14121,0.403,551
2021-11-04T15:44:35,42.805,6.029,CST-1368DR,5103,6736,14121,0.403,551
2021-11-04T15:47:36,42.805,6.029,CST-1368DR,5103,6736,14122,0.402,551
2021-11-04T15:50:38,42.805,6.029,CST-1368DR,5104,6733,14113,0.405,551
2021-11-04T15:53:40,42.805,6.029,CST-1368DR,5104,6736,14118,0.403,551
2021-11-04T15:56:41,42.805,6.029,CST-1368DR,5104,6736,14119,0.403,551
2021-11-04T15:59:43,42.805,6.029,CST-1368DR,5104,6736,14119,0.403,551
2021-11-04T16:02:44,42.805,6.029,CST-1368DR,5104,6736,14119,0.403,551
2021-11-04T16:05:46,42.805,6.029,CST-1368DR,5103,6736,14122,0.402,551
2021-11-04T16:08:48,42.805,6.029,CST-1368DR,5104,6737,14120,0.403,551
2021-11-04T16:11:49,42.805,6.029,CST-1368DR,5103,6736,14121,0.403,551
2021-11-04T16:14:51,42.805,6.029,CST-1368DR,5104,6735,14117,0.404,551
2021-11-04T16:17:52,42.805,6.029,CST-1368DR,5104,6734,14115,0.404,551
2021-11-04T16:20:54,42.805,6.029,CST-1368DR,5104,6735,14117,0.404,551
2021-11-04T16:23:55,42.805,6.029,CST-1368DR,5103,6736,14121,0.403,551
2021-11-04T16:26:57,42.805,6.029,CST-1368DR,5103,6735,14119,0.403,551
2021-11-04T16:29:59,42.805,6.029,CST-1368DR,5103,6735,14119,0.403,551
2021-11-04T16:33:00,42.805,6.029,CST-1368DR,5103,6737,14123,0.402,551
2021-11-04T16:36:02,42.805,6.029,CST-1368DR,5103,6736,14122,0.402,551
2021-11-04T16:39:03,42.805,6.029,CST-1368DR,5104,6736,14120,0.403,551
2021-11-04T16:42:05,42.805,6.029,CST-1368DR,5103,6736,14122,0.402,551
2021-11-04T16:45:06,42.805,6.029,CST-1368DR,5103,6735,14120,0.403,551
2021-11-04T16:48:08,42.805,6.029,CST-1368DR,5103,6736,14121,0.403,551
2021-11-04T16:51:10,42.805,6.029,CST-1368DR,5103,6736,14122,0.402,551
2021-11-04T16:54:11,42.805,6.029,CST-1368DR,5103,6736,14122,0.402,551
2021-11-04T16:57:13,42.805,6.029,CST-1368DR,5103,6735,14120,0.403,551